Date String (YYYY-MM-DD hh:mm:ss) UTC,Instrument flags,Ambient pressure (hPa),Sample flow (lpm),Bypass flow (lpm),Sample temperature (°C),Ambient temperature (°C),ASC tube jacket temperature (°C),LED temperature (°C),Box temperature (°C),Sample RH (%),Span deviation,Mass concentration (μg/m³),Mass concentration (μg/m³),Mass concentration (μg/m³)
DateTimeUTC,F1_M11,P_M11,Q1_M11,Q2_M11,T1_M11,T2_M11,T3_M11,T4_M11,T5_M11,U1_M11,ZSPAN_M11,X0_M11,X2_M11,X1_M11
2022-11-09 20:00:00,,0813.6,5.01,0.00,23.6,22.5,00.0,32.3,25.6,16.6,-001.0,0015.93,0010.42,0009.00
2022-11-09 20:01:00,,0813.5,5.00,0.00,23.6,22.6,00.0,32.3,25.6,16.5,-000.9,0015.77,0010.36,0009.00
2022-11-09 20:02:00,,0813.5,5.00,0.00,23.7,22.6,00.0,32.3,25.6,16.5,-000.9,0015.80,0010.37,0009.00
2022-11-09 20:03:00,,0813.5,5.00,0.00,23.7,22.6,00.0,32.4,25.6,16.4,-000.9,0015.52,0010.40,0009.01
2022-11-09 20:04:00,,0813.5,5.00,0.00,23.7,22.6,00.0,32.4,25.6,16.4,-000.7,0015.46,0010.35,0009.02
2022-11-09 20:05:00,,0813.5,5.01,0.00,23.7,22.6,00.0,32.4,25.6,16.5,-000.7,0015.62,0010.39,0009.02
2022-11-09 20:06:00,,0813.5,5.00,0.00,23.7,22.7,00.0,32.4,25.6,16.5,-000.5,0015.85,0010.42,0009.04
2022-11-09 20:07:00,,0813.4,5.01,0.00,23.7,22.7,00.0,32.4,25.7,16.4,-000.7,0016.44,0010.42,0009.07
2022-11-09 20:08:00,,0813.4,5.01,0.00,23.8,22.7,00.0,32.4,25.7,16.4,-001.0,0016.80,0010.37,0009.08
2022-11-09 20:09:00,,0813.4,5.00,0.00,23.8,22.7,00.0,32.4,25.7,16.3,-001.3,0017.27,0010.37,0009.09
2022-11-09 20:10:00,,0813.3,5.01,0.00,23.8,22.7,00.0,32.5,25.7,16.4,-001.5,0018.03,0010.32,0009.11
2022-11-09 20:11:00,,0813.2,5.00,0.00,23.8,22.7,00.0,32.5,25.8,16.4,-001.3,0018.57,0010.38,0009.14
2022-11-09 20:12:00,,0813.2,4.99,0.00,23.8,22.7,00.0,32.5,25.9,16.3,-001.1,0018.71,0010.45,0009.16
2022-11-09 20:13:00,,0813.3,5.00,0.00,23.8,22.7,00.0,32.5,25.8,16.3,-001.3,0019.11,0010.57,0009.20
2022-11-09 20:14:00,,0813.3,5.01,0.00,23.8,22.8,00.0,32.5,25.8,16.4,-001.4,0019.65,0010.64,0009.23
2022-11-09 20:15:00,,0813.2,5.00,0.00,23.9,22.8,00.0,32.5,25.8,16.3,-001.5,0020.06,0010.67,0009.27
2022-11-09 20:16:00,,0813.1,4.99,0.00,23.9,22.8,00.0,32.6,25.9,16.3,-001.4,0021.84,0010.69,0009.29
2022-11-09 20:17:00,,0813.2,5.01,0.00,23.9,22.8,00.0,32.6,25.9,16.2,-001.6,0023.41,0010.79,0009.31
2022-11-09 20:18:00,,0813.1,5.01,0.00,23.9,22.8,00.0,32.6,25.9,16.2,-001.7,0024.04,0010.86,0009.31
2022-11-09 20:19:00,,0813.1,5.00,0.00,23.9,22.8,00.0,32.6,25.9,16.3,-001.6,0024.66,0010.91,0009.32
2022-11-09 20:20:00,,0813.0,4.99,0.00,23.9,22.8,00.0,32.6,25.9,16.3,-001.2,0025.47,0010.98,0009.36
2022-11-09 20:21:00,,0813.1,4.99,0.00,23.9,22.8,00.0,32.6,26.0,16.4,-001.2,0024.66,0011.03,0009.39
2022-11-09 20:22:00,,0813.1,4.99,0.00,24.0,22.8,00.0,32.6,26.0,16.3,-001.4,0024.71,0011.01,0009.40
2022-11-09 20:23:00,,0813.1,5.02,0.00,24.0,22.8,00.0,32.6,26.0,16.4,-001.3,0025.17,0010.96,0009.41
2022-11-09 20:24:00,,0813.1,5.01,0.00,24.0,22.8,00.0,32.7,26.0,16.3,-001.0,0025.58,0010.92,0009.43
2022-11-09 20:25:00,,0813.0,4.99,0.00,24.0,22.8,00.0,32.7,26.0,16.3,-000.9,0025.31,0010.93,0009.44
2022-11-09 20:26:00,,0813.0,4.99,0.00,24.0,22.9,00.0,32.7,26.0,16.2,-000.8,0025.21,0010.99,0009.47
2022-11-09 20:27:00,,0813.0,4.99,0.00,24.0,22.9,00.0,32.7,26.0,16.3,-000.4,0023.90,0010.99,0009.49
2022-11-09 20:28:00,,0812.9,5.00,0.00,24.0,22.9,00.0,32.7,26.0,16.4,-000.4,0021.87,0010.88,0009.50
2022-11-09 20:29:00,,0813.0,5.00,0.00,24.0,22.9,00.0,32.7,26.0,16.2,-000.0,0021.00,0010.87,0009.51
2022-11-09 20:30:00,,0813.2,5.00,0.00,24.1,22.9,00.0,32.8,26.0,16.2,-000.0,0020.43,0010.87,0009.54
2022-11-09 20:31:00,,0812.9,5.02,0.00,24.1,22.9,00.0,32.8,26.0,16.2,0000.1,0019.33,0010.80,0009.52
2022-11-09 20:32:00,,0812.8,4.99,0.00,24.1,22.9,00.0,32.8,26.1,16.3,0000.4,0019.22,0010.79,0009.51
2022-11-09 20:33:00,,0812.9,5.00,0.00,24.1,23.0,00.0,32.8,26.1,16.3,0000.1,0019.25,0010.82,0009.49
2022-11-09 20:34:00,,0812.9,5.00,0.00,24.1,23.0,00.0,32.8,26.1,16.3,-000.3,0018.76,0010.87,0009.48
2022-11-09 20:35:00,,0813.0,4.99,0.00,24.1,23.0,00.0,32.8,26.1,16.2,-000.5,0018.53,0010.83,0009.46
2022-11-09 20:36:00,,0812.8,5.01,0.00,24.1,23.0,00.0,32.8,26.1,16.2,-000.7,0018.54,0010.73,0009.44
2022-11-09 20:37:00,,0812.8,5.00,0.00,24.1,23.0,00.0,32.8,26.1,16.2,-000.5,0018.64,0010.67,0009.42
2022-11-09 20:38:00,,0812.8,5.00,0.00,24.1,23.0,00.0,32.8,26.1,16.2,-000.7,0018.69,0010.68,0009.41
2022-11-09 20:39:00,,0812.8,5.00,0.00,24.2,23.0,00.0,32.8,26.1,16.2,-000.5,0019.29,0010.70,0009.40
2022-11-09 20:40:00,,0812.8,5.00,0.00,24.2,23.0,00.0,32.8,26.1,16.1,-000.8,0019.19,0010.64,0009.38
2022-11-09 20:41:00,,0812.7,5.00,0.00,24.2,23.0,00.0,32.9,26.1,16.0,-000.5,0019.27,0010.62,0009.37
2022-11-09 20:42:00,,0812.6,5.00,0.00,24.2,23.0,00.0,32.9,26.2,16.1,-000.7,0021.07,0010.64,0009.35
2022-11-09 20:43:00,,0812.6,5.00,0.00,24.2,23.0,00.0,32.9,26.2,16.2,-001.0,0023.11,0010.68,0009.35
2022-11-09 20:44:00,,0812.5,5.00,0.00,24.2,23.0,00.0,32.9,26.2,16.1,-000.8,0023.50,0010.64,0009.36
2022-11-09 20:45:00,,0812.5,4.99,0.00,24.2,23.0,00.0,32.9,26.2,16.1,-000.3,0023.58,0010.59,0009.35
2022-11-09 20:46:00,,0812.5,4.99,0.00,24.2,23.0,00.0,32.9,26.2,16.2,-000.1,0024.10,0010.60,0009.35
2022-11-09 20:47:00,,0812.4,5.01,0.00,24.2,23.0,00.0,32.9,26.2,16.2,0000.3,0024.33,0010.62,0009.34
2022-11-09 20:48:00,,0812.4,5.01,0.00,24.2,23.0,00.0,32.9,26.2,16.1,0000.6,0024.04,0010.57,0009.31
2022-11-09 20:49:00,,0812.4,4.99,0.00,24.2,23.1,00.0,32.9,26.2,16.0,0000.7,0023.90,0010.50,0009.26
2022-11-09 20:50:00,,0812.4,4.99,0.00,24.3,23.1,00.0,32.9,26.2,16.0,0000.6,0023.43,0010.46,0009.25
2022-11-09 20:51:00,,0812.4,5.00,0.00,24.3,23.1,00.0,33.0,26.2,16.0,0000.7,0022.96,0010.43,0009.25
2022-11-09 20:52:00,,0812.5,5.01,0.00,24.3,23.1,00.0,33.0,26.2,16.0,0000.2,0023.31,0010.43,0009.24
2022-11-09 20:53:00,,0812.4,5.01,0.00,24.3,23.1,00.0,33.0,26.3,16.1,0000.1,0021.98,0010.42,0009.22
2022-11-09 20:54:00,,0812.4,5.00,0.00,24.3,23.1,00.0,33.0,26.3,16.1,0000.2,0020.30,0010.40,0009.20
2022-11-09 20:55:00,,0812.4,5.00,0.00,24.3,23.1,00.0,33.0,26.3,16.0,-000.1,0019.43,0010.37,0009.18
2022-11-09 20:56:00,,0812.4,5.00,0.00,24.3,23.2,00.0,33.0,26.3,16.0,-000.3,0021.11,0010.40,0009.17
2022-11-09 20:57:00,,0812.4,5.00,0.00,24.3,23.2,00.0,33.0,26.3,16.1,-000.6,0020.62,0010.43,0009.18
2022-11-09 20:58:00,,0812.4,5.00,0.00,24.3,23.2,00.0,33.0,26.3,16.1,-000.7,0020.16,0010.49,0009.18
2022-11-09 20:59:00,,0812.4,5.00,0.00,24.3,23.2,00.0,33.0,26.3,15.9,-000.8,0019.68,0010.54,0009.20
